Location: Newark
(41.1142°N, 73.9831°W)
Time: 15:27:12
(UTC+00:00)

ISS - Pass Details

Date: 25 September 2019
Orbit: 411 x 421 km, 51.6° (Epoch: 14 October)

Event Time Altitude Azimuth Distance (km) Brightness Sun altitude
Rises 23:58:08 0° 268° (W) 2,338 1.7 -13.6°
Reaches altitude 10° 00:00:30 10° 284° (WNW) 1,478 0.5 -14.0°
Maximum altitude 00:03:13 23° 339° (NNW) 927 -1.6 -14.5°
Drops below altitude 10° 00:05:57 10° 34° (NE) 1,482 -1.2 -15.0°
Enters shadow 00:06:08 - 36° (NE) 1,545 -1.1 -15.1°
